FW0606 Weather Reports


Display with metric or nautical units.
time (UTC)temp
F
wind
direction
speed
MPH
gust
MPH
rain 1hr
in
rain 24hr
in
rain mn
in
humidity
%
barometer
mb
20180720105219 83 102 0.0 1.0 0.00 0.00 0.00 55 1009.9
20180720103712 84 102 0.0 3.0 0.00 0.00 0.00 54 1009.3
20180720102210 84 230 0.0 2.0 0.00 0.00 0.00 54 1009.3
20180720100710 84 147 0.0 2.0 0.00 0.00 0.00 53 1009.1
20180720095206 85 181 0.0 4.0 0.00 0.00 0.00 52 1009.0
20180720093711 85 98 0.0 3.0 0.00 0.00 0.00 52 1009.0
20180720092205 85 171 0.0 3.0 0.00 0.00 0.00 52 1008.9
20180720090704 86 212 0.0 3.0 0.00 0.00 0.00 51 1008.7
20180720085200 85 227 0.0 2.0 0.00 0.00 0.00 52 1008.6
20180720083659 86 205 0.0 5.0 0.00 0.00 0.00 52 1008.3
20180720082158 86 169 0.0 2.0 0.00 0.00 0.00 51 1008.5
20180720080654 87 194 0.0 2.0 0.00 0.00 0.00 50 1008.6
20180720075151 87 130 0.0 3.0 0.00 0.00 0.00 49 1008.6
20180720073650 88 200 0.0 3.0 0.00 0.00 0.00 48 1008.8
20180720072151 88 136 0.0 4.0 0.00 0.00 0.00 47 1008.4
20180720070645 89 221 0.0 4.0 0.00 0.00 0.00 46 1008.3
20180720065144 89 33 0.0 7.0 0.00 0.00 0.00 45 1008.2
20180720063642 90 227 1.0 6.0 0.00 0.00 0.00 44 1008.1
20180720062142 90 163 2.0 7.0 0.00 0.00 0.00 43 1008.3
20180720060642 90 144 2.0 8.0 0.00 0.00 0.00 42 1008.4
20180720055137 91 200 1.0 5.0 0.00 0.00 0.00 42 1008.4
20180720053633 92 113 1.0 7.0 0.00 0.00 0.00 41 1008.4
20180720052131 92 65 1.0 9.0 0.00 0.00 0.00 40 1008.6
20180720050628 93 200 1.0 8.0 0.00 0.00 0.00 39 1008.4
20180720045127 93 228 0.0 6.0 0.00 0.00 0.00 39 1008.6
20180720043627 94 130 0.0 7.0 0.00 0.00 0.00 38 1008.6
20180720042126 94 152 0.0 4.0 0.00 0.00 0.00 39 1008.4
20180720040627 94 194 1.0 5.0 0.00 0.00 0.00 39 1008.4
20180720035125 95 138 1.0 4.0 0.00 0.00 0.00 39 1008.3
20180720033628 95 135 0.0 4.0 0.00 0.00 0.00 39 1008.4
20180720032124 96 160 0.0 3.0 0.00 0.00 0.00 37 1008.5
20180720030626 97 132 1.0 4.0 0.00 0.00 0.00 37 1008.1
20180720025124 97 133 2.0 5.0 0.00 0.00 0.00 36 1007.9
20180720023624 97 155 0.0 4.0 0.00 0.00 0.00 36 1007.6
20180720022124 98 147 0.0 3.0 0.00 0.00 0.00 35 1007.2
20180720020624 98 128 0.0 2.0 0.00 0.00 0.00 35 1007.1
20180720015121 99 200 0.0 4.0 0.00 0.00 0.00 34 1006.8
20180720013621 100 157 1.0 3.0 0.00 0.00 0.00 33 1006.9
20180720012120 101 135 0.0 5.0 0.00 0.00 0.00 33 1006.7
20180720010619 102 110 0.0 5.0 0.00 0.00 0.00 32 1006.6
20180720005121 103 184 0.0 4.0 0.00 0.00 0.00 31 1006.6
20180720003619 104 170 1.0 6.0 0.00 0.00 0.00 30 1006.3
20180720002119 105 160 2.0 9.0 0.00 0.00 0.00 29 1006.3
20180720000619 105 123 1.0 9.0 0.00 0.00 0.00 29 1006.2
20180719235118 106 213 1.0 7.0 0.00 0.00 0.00 28 1006.2
20180719233623 107 142 1.0 5.0 0.00 0.00 0.00 28 1006.3
20180719232118 107 117 1.0 7.0 0.00 0.00 0.00 27 1006.3
20180719230613 108 134 2.0 6.0 0.00 0.00 0.00 27 1006.6
20180719225115 108 132 2.0 5.0 0.00 0.00 0.00 27 1006.6
20180719223613 108 191 2.0 7.0 0.00 0.00 0.00 27 1006.8
20180719222109 108 155 1.0 5.0 0.00 0.00 0.00 27 1007.0
20180719220609 108 232 1.0 7.0 0.00 0.00 0.00 27 1007.2
20180719215107 109 101 1.0 8.0 0.00 0.00 0.00 27 1007.2
20180719213608 109 132 2.0 6.0 0.00 0.00 0.00 27 1007.2
20180719212103 109 144 2.0 7.0 0.00 0.00 0.00 26 1007.3
20180719210601 109 94 2.0 8.0 0.00 0.00 0.00 27 1007.4
20180719205102 109 231 2.0 6.0 0.00 0.00 0.00 26 1007.7
20180719203601 109 232 1.0 5.0 0.00 0.00 0.00 26 1007.8
20180719202103 109 150 1.0 7.0 0.00 0.00 0.00 25 1008.0
20180719200558 108 211 1.0 6.0 0.00 0.00 0.00 29 1008.2
20180719195053 109 155 1.0 9.0 0.00 0.00 0.00 25 1008.2
20180719193552 108 142 2.0 8.0 0.00 0.00 0.00 28 1008.2
20180719192050 107 252 2.0 7.0 0.00 0.00 0.00 28 1008.5
20180719190547 107 163 1.0 7.0 0.00 0.00 0.00 28 1008.8
20180719185043 106 266 3.0 8.0 0.00 0.00 0.00 28 1008.7
20180719183543 106 136 1.0 7.0 0.00 0.00 0.00 32 1008.8
20180719182040 105 189 2.0 7.0 0.00 0.00 0.00 34 1009.0
20180719180536 105 253 4.0 9.0 0.00 0.00 0.00 31 1009.3
20180719175036 104 189 2.0 7.0 0.00 0.00 0.00 33 1009.3
20180719173532 103 205 3.0 11.0 0.00 0.00 0.00 33 1009.8
20180719172031 103 173 2.0 9.0 0.00 0.00 0.00 33 1009.9
20180719170529 102 297 1.0 7.0 0.00 0.00 0.00 35 1009.9
20180719165027 101 235 2.0 7.0 0.00 0.00 0.00 36 1010.3
20180719163531 100 148 2.0 6.0 0.00 0.00 0.00 38 1010.4
20180719162025 100 144 1.0 8.0 0.00 0.00 0.00 39 1010.5
20180719160522 98 233 1.0 10.0 0.00 0.00 0.00 42 1010.5
20180719155018 97 120 1.0 7.0 0.00 0.00 0.00 46 1010.6
20180719153516 96 170 2.0 9.0 0.00 0.00 0.00 46 1010.7
20180719152014 95 194 2.0 7.0 0.00 0.00 0.00 48 1010.7
20180719150511 94 244 3.0 9.0 0.00 0.00 0.00 48 1011.0
20180719145007 93 207 2.0 9.0 0.00 0.00 0.00 51 1011.1
20180719143503 92 130 2.0 9.0 0.00 0.00 0.00 54 1011.0
20180719142003 91 195 1.0 7.0 0.00 0.00 0.00 56 1011.0
20180719140503 89 244 1.0 4.0 0.00 0.00 0.00 60 1011.0
20180719135000 88 242 2.0 6.0 0.00 0.00 0.00 61 1010.9
20180719133458 86 193 1.0 4.0 0.00 0.00 0.00 65 1010.8
20180719131959 86 136 0.0 3.0 0.00 0.00 0.00 68 1010.6
20180719130456 84 155 0.0 3.0 0.00 0.00 0.00 68 1010.4
20180719124953 83 219 0.0 4.0 0.00 0.00 0.00 68 1010.3
20180719123456 82 226 0.0 2.0 0.00 0.00 0.00 69 1010.2
20180719121951 81 169 0.0 2.0 0.00 0.00 0.00 70 1010.1
20180719120450 81 177 0.0 3.0 0.00 0.00 0.00 71 1010.1
20180719114949 80 167 0.0 2.0 0.00 0.00 0.00 71 1010.1
20180719113449 80 167 0.0 1.0 0.00 0.00 0.00 71 1009.9
20180719111946 80 167 0.0 0.0 0.00 0.00 0.00 70 1009.8
20180719110443 81 167 0.0 0.0 0.00 0.00 0.00 67 1009.9